Regional Weather Roundup
Issued by NWS

Home | Current Version | Previous Version | Text Only | Print | Product List | Glossary On
Versions: 1 2 3 4 5 6 7 8 9 10 11 12 13 14 15 16 17 18 19 20 21 22 23 24 25 26 27 28 29 30 31 32 33 34 35 36 37 38 39 40 41 42 43 44 45 46 47 48 49 50
000
ASUS44 KFWD 171303
RWRTX
NORTH TEXAS HOURLY WEATHER ROUNDUP
NATIONAL WEATHER SERVICE FORT WORTH TX
800 AM CDT THU APR 17 2014

NOTE: "FAIR" INDICATES FEW OR NO CLOUDS BELOW 12,000 FEET WITH NO
SIGNIFICANT WEATHER AND/OR OBSTRUCTIONS TO VISIBILITY.

TXZ118-119-171400-
DALLAS/FORT WORTH METROPLEX

CITY           SKY/WX    TMP DP  RH WIND       PRES   REMARKS
DFW AIRPORT    PTSUNNY   52  47  83 SE8       30.11R
DALLAS LOVE    PTSUNNY   52  46  80 SE13      30.11R
FTW MEACHAM    MOSUNNY   53  49  86 SE5       30.10R
DAL-EXECUTIVE  SUNNY     50  46  86 E5        30.10R
FTW-ALLIANCE   MOSUNNY   51  48  89 E3        30.10R
FTW-NAS-JRB    MOSUNNY   55  46  71 VRB6      30.14R
FTW-SPINKS     SUNNY     52  48  87 SE5       30.11R FOG
ARLINGTON      PTSUNNY   53  48  83 SE3       30.10R
GRAND PRAIRIE  PTSUNNY   52  48  87 SE7       30.13R
ADDISON        MOSUNNY   54  46  76 E9        30.12R
MESQUITE         N/A     52  46  82 SE6       30.12R
LANCASTER      CLOUDY    49  46  86 CALM      30.12R
$$

TXZ091>094-102>105-117-120-121-131>134-171400-
NORTH CENTRAL TEXAS

CITY           SKY/WX    TMP DP  RH WIND       PRES   REMARKS
SHRMAN/DENISON CLOUDY    47  40  76 E7        30.15R
GAINESVILLE    PTSUNNY   47  44  87 SE6       30.14R
BOWIE          CLOUDY    51  48  89 SE7       30.10R
BRIDGEPORT     CLOUDY    53  47  81 SE7       30.11R
DECATUR        CLOUDY    49  47  91 E3        30.10R
DENTON         MOSUNNY   51  47  86 SE6       30.11R
MCKINNEY       MOSUNNY   48  44  86 CALM      30.13R
GREENVILLE     SUNNY     48  43  81 CALM      30.14R
ROCKWALL       PTSUNNY   49  46  89 E6        30.11R
TERRELL        PTSUNNY   50  47  89 E5        30.13R
WAXAHACHIE     MOSUNNY   47  46  93 E5        30.12R
CLEBURNE       PTSUNNY   50  50 100 E7        30.11R
GRANBURY       CLOUDY    55  50  82 SE8       30.10R
$$

TXZ083>090-098>101-113>116-127>130-139>142-154-155-171400-
WESTERN NORTH TEXAS

CITY           SKY/WX    TMP DP  RH WIND       PRES   REMARKS
WICHITA FALLS  MOSUNNY   48  44  86 SE3       30.08R
WF-KICKAPOO    MOSUNNY   51  46  82 SE10      30.10R
VERNON         SUNNY     49  42  77 E5        30.08R
ABILENE        CLOUDY    56  48  74 E12       30.05R
ABILENE-DYESS  CLOUDY    55  48  76 E7        30.04R
BRECKENRIDGE   PTSUNNY   56  49  76 SE8       30.07R
GRAHAM         PTSUNNY   53  48  84 SE8       30.07R
MINERAL WELLS  PTSUNNY   53  49  86 S9        30.08R
STEPHENVILLE   CLOUDY    53  50  89 E7        30.10R
COMANCHE       CLOUDY    53  52  97 E6        30.05R FOG
BROWNWOOD      CLOUDY    54  50  87 E12       30.04R FOG
COLEMAN        CLOUDY    56  50  80 E14       30.02R
BRADY          CLOUDY    57  52  82 SE8       29.98R
$$

TXZ143>147-156>162-174-175-171400-
CENTRAL TEXAS

CITY           SKY/WX    TMP DP  RH WIND       PRES   REMARKS
WACO           CLOUDY    54  51  90 E8        30.08R
WACO-TSTC      CLOUDY    55  52  88 E5        30.09R
WACO-MCGREGOR  CLOUDY    55  48  76 E9        30.09R
HILLSBORO      CLOUDY    51  48  89 E10       30.09R
CORSICANA      PTSUNNY   54  49  83 E8        30.12R
MEXIA          CLOUDY    53  49  88 E6        30.09R
HEARNE         CLOUDY    55  52  88 E3        30.08R
CAMERON        CLOUDY    55  52  91 E7        30.07R
TEMPLE         CLOUDY    55  48  76 E8        30.09R
KILLEEN        CLOUDY    55  54  94 E9        30.04R
KILLEEN-SKYLRK CLOUDY    55  48  76 E9        30.04R
GATESVILLE     CLOUDY    54  54 100 E3        30.08R FOG
HAMILTON       CLOUDY    54  54 100 E8        30.06R FOG
LAMPASAS       CLOUDY    55  53  92 E9        30.03R
$$

TXZ095>097-106>112-122>126-135>138-148>153-164>167-171400-
EAST TEXAS

CITY           SKY/WX    TMP DP  RH WIND       PRES   REMARKS
PARIS          SUNNY     46  39  76 E7        30.17R
SULPHUR SPRNGS SUNNY     46  43  91 E3        30.17R
CLARKSVILLE    SUNNY     47  40  76 CALM      30.18R
MOUNT PLEASANT MOSUNNY   45  43  93 NE3       30.18R
MINEOLA        MOSUNNY   45  45 100 CALM      30.15R
TYLER          CLOUDY    54  47  77 SE8       30.14R
LONGVIEW       CLOUDY    47  43  86 E5        30.16R
MARSHALL       CLOUDY    46  43  87 CALM      30.19R
ATHENS         CLOUDY    50  46  87 SE3       30.12R
PALESTINE      CLOUDY    55  48  77 E7        30.13R
JACKSONVILLE   CLOUDY    49  46  88 E3        30.15R
HENDERSON      CLOUDY    49  46  87 CALM      30.16R
NACOGDOCHES    CLOUDY    52  46  82 E8        30.15R
LUFKIN         CLOUDY    56  48  74 E9        30.12S
$$

SUPPLEMENTAL OBSERVATIONS (CENTRAL)

CITY           SKY/WX    TMP DP  RH WIND       PRES   REMARKS
$$

SUPPLEMENTAL OBSERVATIONS (WEST)

CITY           SKY/WX    TMP DP  RH WIND       PRES   REMARKS
$$

SUPPLEMENTAL OBSERVATIONS (EAST)

CITY           SKY/WX    TMP DP  RH WIND       PRES   REMARKS
$$

SUPPLEMENTAL OBSERVATIONS ARE A COLLECTION OF AUTOMATED INSTRUMENTS
THAT ARE MAINTAINED BY A VARIETY OF FEDERAL AND STATE AGENCIES.
CERTAIN ELEMENTS...SUCH AS HUMIDITY VALUES AND SUSTAINED WIND
SPEEDS...MAY BE APPROXIMATED.




USA.gov is the U.S. government's official web portal to all federal, state and local government web resources and services.